Location: Nianha
(10.8000°N, 4.6333°W)
Time: 18:19:57
(UTC+00:00)

STARLINK-36 - Pass Details

Date: 14 November 2019
Orbit: 529 x 530 km, 53.0° (Epoch: 19 January)

Event Time Altitude Azimuth Distance (km) Brightness Sun altitude
Exits shadow 04:28:52 58° 118° (ESE) 628 4.1 -25.5°
Drops below altitude 10° 04:32:49 10° 45° (NE) 1,798 6.6 -24.6°
Sets 04:35:03 0° 41° (NE) 2,692 7.5 -24.0°
